Location: �perlecques
(50.8057°N, 2.1521°E)
Time: 20:53:42
(UTC+00:00)

Tiros 1 - Pass Details

Date: 07 August 2021
Orbit: 630 x 663 km, 48.4° (Epoch: 28 September)

Event Time Altitude Azimuth Distance (km) Brightness Sun altitude
Rises 15:32:02 0° 218° (SW) 2,985 11.3 35.1°
Reaches altitude 10° 15:34:39 10° 206° (SSW) 2,074 10.5 34.8°
Maximum altitude 15:38:41 28° 149° (SSE) 1,247 8.7 34.1°
Drops below altitude 10° 15:42:43 10° 91° (E) 2,071 9.4 33.5°
Sets 15:45:19 0° 80° (E) 2,981 10.0 33.1°
